Find Starlink 35428

NORAD ID: 66115 Int'l Des: 2025-237 Owner: SPXS Country: US Constellation: starlink operational
LEOCIRCULAR

Aktuelle Ansicht

3D-Globus wird geladen...

Über Starlink 35428

Beschreibung wird geladen...

Nächste Überflüge

Passes for default location (London). Set your location on the main map for personalized predictions.

Höhenverlauf

Loading altitude history...

Zweizeiliger Elementsatz

1 66115U 25237B 26146.12243846 .00016586 00000-0 57108-3 0 9997
2 66115 53.1590 40.1135 0001074 63.5038 296.6073 15.30187687 34450
Epoch: 26. Mai 2026 • Age: 20 hours

Aktueller Status

Höhe 489.3 km
Geschwindigkeit 7.62 km/s
Subsatellitenpunkt -40.67°S, 30.04°E
Startdatum 22. Okt. 2025
Alter 0.5 years
Typ internet

Technische Details

Klassifizierung Payload
Masse 575.00 kg
Trockenmasse 530.00 kg
Gesamtmasse 575.00 kg
Länge 0.30 m
Durchmesser 4.10 m
Spannweite 29.00 m
Form Box + pan
Hersteller SPXS
Bus-Typ Starlink V2MO
Phasenstatus In Orbit
Besitzer/Staat SPXS/US

Most Searched